Weather History for KGYL - April, 2013

Change the Weather History Date:

Wednesday, April 17, 2013

  Actual Average (KHCD) Record (KHCD)
Temperature  
Mean Temperature 38 °F -  
Max Temperature 41 °F 60 °F 82 °F (1964)
Min Temperature 33 °F 36 °F 21 °F (1997)
Degree Days  
Heating Degree Days 28    
Moisture  
Dew Point 29 °F    
Average Humidity 75    
Maximum Humidity 92    
Minimum Humidity 65    
Precipitation  
Precipitation 0.15 in - - ()
Sea Level Pressure  
Sea Level Pressure 30.14 in    
Wind  
Wind Speed 5 mph (NNE)    
Max Wind Speed 13 mph    
Max Gust Speed 20 mph    
Visibility 8 miles    
Events Rain , Snow    
Averages and records for this station are not official NWS values.
T = Trace of Precipitation, MM = Missing Value Source: NWS Daily Summary

Daily Weather History Graph

Daily Weather History Graph

Search for Another Location

Airport or City:

Trip Planner

Search our weather history database for the weather conditions in past years. The results will help you decide how hot, cold, wet, or windy it might be!

Date:

Astronomy

Apr. 17, 2013 Rise Set
Actual Time 6:28 AM CDT 8:04 PM CDT
Civil Twilight 5:57 AM CDT 8:35 PM CDT
Nautical Twilight 5:20 AM CDT 9:12 PM CDT
Astronomical Twilight 4:40 AM CDT 9:52 PM CDT
Moon 11:37 AM CDT (4/17) 1:47 AM CDT (4/17)
Length of Visible Light 14h 37m
Length of Day
13h 36m
Waxing Crescent, 42% of the Moon is Illuminated
Apr 17
Waxing Crescent
Apr 18
First Quarter
Apr 25
Full
May 2
Last Quarter
May 9
New

Hourly Weather History & Observations

Time (CDT) Temp. Windchill Dew Point Humidity Pressure Visibility Wind Dir Wind Speed Gust Speed Precip Events Conditions
12:15 AM 34.9 °F 29.9 °F 28.0 °F 76% 30.29 in 10.0 mi North 5.8 mph - N/A   Scattered Clouds
12:34 AM 34.7 °F 30.6 °F 28.0 °F 77% 30.30 in 10.0 mi North 4.6 mph - N/A   Scattered Clouds
12:55 AM 34.7 °F - 27.5 °F 75% 30.30 in 10.0 mi Calm Calm - N/A   Scattered Clouds
1:14 AM 34.7 °F 30.6 °F 27.7 °F 76% 30.30 in 10.0 mi North 4.6 mph - N/A   Scattered Clouds
1:34 AM 34.7 °F 30.6 °F 27.5 °F 75% 30.30 in 10.0 mi North 4.6 mph - N/A   Scattered Clouds
1:55 AM 34.7 °F 30.6 °F 27.3 °F 74% 30.30 in 10.0 mi North 4.6 mph - N/A   Mostly Cloudy
2:15 AM 34.9 °F 30.8 °F 27.3 °F 74% 30.29 in 10.0 mi North 4.6 mph - N/A   Overcast
2:34 AM 35.2 °F 32.4 °F 27.0 °F 72% 30.30 in 10.0 mi NNE 3.5 mph - N/A   Overcast
2:55 AM 35.2 °F 32.4 °F 27.0 °F 72% 30.30 in 10.0 mi NNE 3.5 mph - N/A   Overcast
3:15 AM 35.1 °F 32.2 °F 27.3 °F 73% 30.30 in 10.0 mi NNE 3.5 mph - N/A   Overcast
3:34 AM 35.1 °F 31.0 °F 27.7 °F 74% 30.29 in 10.0 mi North 4.6 mph - N/A   Overcast
3:55 AM 35.1 °F 30.1 °F 27.5 °F 74% 30.28 in 10.0 mi North 5.8 mph - N/A   Overcast
4:15 AM 35.2 °F 32.4 °F 27.5 °F 73% 30.28 in 10.0 mi North 3.5 mph - N/A   Overcast
4:34 AM 35.2 °F 31.2 °F 27.3 °F 73% 30.26 in 10.0 mi NNE 4.6 mph - N/A   Mostly Cloudy
4:55 AM 35.6 °F 31.7 °F 27.0 °F 71% 30.25 in 10.0 mi NNE 4.6 mph - N/A   Mostly Cloudy
5:14 AM 35.6 °F 30.7 °F 27.1 °F 71% 30.23 in 10.0 mi NNE 5.8 mph - N/A   Overcast
5:34 AM 35.6 °F 30.7 °F 26.6 °F 70% 30.22 in 10.0 mi NNE 5.8 mph - N/A   Overcast
5:55 AM 35.6 °F 32.8 °F 26.4 °F 69% 30.21 in 10.0 mi NNE 3.5 mph - N/A   Overcast
6:14 AM 35.8 °F 33.0 °F 26.6 °F 69% 30.21 in 10.0 mi NE 3.5 mph - N/A   Overcast
6:35 AM 36.0 °F - 26.6 °F 69% 30.25 in 10.0 mi Calm Calm - N/A   Overcast
6:54 AM 36.0 °F - 27.1 °F 70% 30.27 in 10.0 mi Calm Calm - N/A   Overcast
7:14 AM 36.0 °F 32.1 °F 27.3 °F 71% 30.24 in 10.0 mi ENE 4.6 mph - N/A   Overcast
7:35 AM 36.1 °F 33.5 °F 26.8 °F 69% 30.22 in 10.0 mi NNE 3.5 mph - N/A   Overcast
7:54 AM 36.3 °F 33.7 °F 27.1 °F 69% 30.22 in 10.0 mi NNE 3.5 mph - N/A   Overcast
8:14 AM 36.3 °F 33.7 °F 27.7 °F 71% 30.24 in 10.0 mi NE 3.5 mph - N/A   Overcast
8:34 AM 36.9 °F - 27.1 °F 68% 30.26 in 10.0 mi Calm Calm - N/A   Overcast
9:14 AM 37.4 °F 34.9 °F 27.3 °F 67% 30.24 in 10.0 mi NNE 3.5 mph - N/A   Overcast
9:35 AM 37.4 °F 32.8 °F 27.5 °F 67% 30.22 in 10.0 mi NNE 5.8 mph - N/A   Overcast
9:54 AM 37.4 °F 32.8 °F 27.5 °F 67% 30.21 in 10.0 mi NNE 5.8 mph - N/A   Overcast
10:15 AM 37.6 °F 34.0 °F 27.5 °F 67% 30.20 in 10.0 mi NNE 4.6 mph - N/A   Overcast
10:35 AM 37.9 °F 32.7 °F 28.2 °F 68% 30.21 in 10.0 mi ENE 6.9 mph - N/A   Overcast
10:55 AM 38.3 °F 32.5 °F 27.9 °F 66% 30.22 in 10.0 mi ENE 8.1 mph - N/A   Overcast
11:14 AM 38.3 °F 32.5 °F 27.5 °F 65% 30.20 in 10.0 mi ENE 8.1 mph - N/A   Overcast
11:34 AM 38.3 °F 31.4 °F 27.5 °F 65% 30.18 in 10.0 mi ENE 10.4 mph - N/A   Overcast
11:54 AM 38.3 °F 33.2 °F 28.2 °F 67% 30.17 in 10.0 mi NE 6.9 mph - N/A   Overcast
12:14 PM 38.7 °F 31.8 °F 28.4 °F 67% 30.15 in 10.0 mi NE 10.4 mph - N/A   Overcast
12:34 PM 38.8 °F 34.6 °F 28.9 °F 68% 30.15 in 10.0 mi NE 5.8 mph - N/A   Overcast
12:54 PM 38.7 °F 33.6 °F 28.9 °F 68% 30.13 in 10.0 mi NE 6.9 mph - N/A   Overcast
1:15 PM 39.2 °F 35.9 °F 28.8 °F 66% 30.14 in 10.0 mi NE 4.6 mph - N/A   Overcast
1:34 PM 39.4 °F 33.8 °F 28.9 °F 66% 30.10 in 10.0 mi NE 8.1 mph - N/A   Overcast
1:55 PM 39.7 °F 33.7 °F 29.3 °F 66% 30.09 in 10.0 mi ENE 9.2 mph - N/A   Overcast
2:14 PM 40.1 °F 35.3 °F 29.3 °F 65% 30.09 in 10.0 mi NE 6.9 mph - N/A   Overcast
2:35 PM 40.1 °F 35.3 °F 29.3 °F 65% 30.10 in 10.0 mi NE 6.9 mph - N/A   Overcast
2:54 PM 40.6 °F 35.4 °F 30.0 °F 66% 30.08 in 10.0 mi NE 8.1 mph - N/A   Overcast
3:34 PM 41.2 °F 35.5 °F 30.2 °F 65% 30.05 in 10.0 mi NNE 9.2 mph - N/A   Overcast
3:54 PM 40.6 °F 34.8 °F 29.8 °F 65% 30.04 in 10.0 mi NNE 9.2 mph - N/A   Overcast
4:14 PM 40.3 °F 35.5 °F 29.7 °F 66% 30.05 in 10.0 mi NE 6.9 mph - N/A   Overcast
4:34 PM 40.3 °F 35.5 °F 29.8 °F 66% 30.03 in 10.0 mi NE 6.9 mph - N/A   Overcast
4:55 PM 39.2 °F 33.6 °F 30.7 °F 72% 30.03 in 7.0 mi NE 8.1 mph 17.3 mph N/A   Overcast
5:14 PM 38.7 °F 31.8 °F 31.8 °F 76% 30.03 in 5.0 mi NE 10.4 mph - N/A   Light Drizzle
5:35 PM 37.9 °F 32.1 °F 32.5 °F 81% 30.00 in 5.0 mi NE 8.1 mph - N/A   Haze
5:54 PM 37.6 °F 31.6 °F 32.9 °F 83% 30.01 in 4.0 mi NE 8.1 mph - N/A   Haze
6:14 PM 37.0 °F 31.6 °F 32.5 °F 84% 30.00 in 5.0 mi NNE 6.9 mph - N/A Rain Light Rain
6:35 PM 37.0 °F 30.4 °F 32.5 °F 84% 29.99 in 7.0 mi NNE 9.2 mph - N/A   Overcast
6:54 PM 36.9 °F 30.7 °F 32.9 °F 86% 29.99 in 4.0 mi NNE 8.1 mph - N/A   Light Drizzle
7:14 PM 36.7 °F 31.2 °F 32.9 °F 86% 29.97 in 5.0 mi NNE 6.9 mph - N/A   Overcast
7:34 PM 36.5 °F 31.8 °F 32.9 °F 87% 29.98 in 4.0 mi NNE 5.8 mph - N/A   Overcast
7:54 PM 36.1 °F 29.9 °F 32.9 °F 88% 29.99 in 5.0 mi NNE 8.1 mph - N/A   Overcast
8:14 PM 36.0 °F 32.1 °F 32.9 °F 89% 29.98 in 7.0 mi NNE 4.6 mph - N/A   Overcast
8:35 PM 36.0 °F 31.1 °F 32.9 °F 89% 29.99 in 4.0 mi NNE 5.8 mph - 0.01 in Rain Light Rain
8:54 PM 36.0 °F 32.1 °F 32.9 °F 89% 30.02 in 4.0 mi NE 4.6 mph - 0.01 in Rain Light Rain
9:15 PM 35.1 °F 29.3 °F 32.0 °F 89% 30.00 in 2.5 mi North 6.9 mph - 0.03 in   Overcast
9:54 PM 34.2 °F 25.7 °F 32.0 °F 92% 29.94 in 5.0 mi North 11.5 mph 17.3 mph 0.08 in Rain Light Rain
10:15 PM 34.0 °F 25.0 °F 31.8 °F 92% 29.92 in 3.0 mi North 12.7 mph 19.6 mph 0.02 in   Overcast
10:34 PM 34.0 °F 26.6 °F 31.8 °F 92% 29.95 in 4.0 mi North 9.2 mph 16.1 mph 0.02 in Rain Light Rain
10:54 PM 34.2 °F 27.5 °F 31.8 °F 91% 29.95 in 10.0 mi North 8.1 mph - 0.02 in   Light Drizzle
11:15 PM 34.2 °F 26.2 °F 31.8 °F 91% 29.96 in 5.0 mi North 10.4 mph 16.1 mph 0.01 in Rain Light Rain
11:34 PM 34.0 °F 26.6 °F 31.6 °F 91% 29.94 in 4.0 mi North 9.2 mph - 0.03 in Snow Light Snow
11:54 PM 33.8 °F 26.4 °F 31.3 °F 90% 29.94 in 3.0 mi North 9.2 mph - 0.04 in Rain Light Rain